(674) Rachele
ephemeris date magn radius delta ra dec elong phase
Opposition29 May 202612.13.376 AU2.364 AU16h24m-25°10'176.4°1.1°
Today26 Jul 202613.23.427 AU2.826 AU15h51m-25°29'118.3°15.1°
(674) Rachele - 2026-07-26
astro.vanbuitenen.nl


 
-1 year
-1 month
-1 day
Now
+1 day
+1 month
+1 year

The interactive orbit chart above shows the body's path through the solar system and its position at the given date. Green and blue lines are shown perpendicular to the ecliptic plane: Green if the path is above the ecliptic plane, blue if it is below. (Left-click and drag to rotate the view; Right-click and drag to move the view; Use scroll wheel to zoom in our out.)

The orbital elements of Rachele are:

            e (Eccentricity)                : 0.1929391
            a (Semimajor axis)              : 2.9246911
            i (Inclination)                 : 13.51152
            Ω (Longitude of ascending node) : 58.07000
            ω (Argument of perihelion)      : 41.20062
            M (Mean anomaly)                : 138.52266
            Epoch                           : 2026 Jun 09

            L (Longitude of perihelion)     : 98.47519
            B (Latitude of perihelion)      : 8.85293
            P (Orbital period in years)     : 5.00            
        

The light curve chart below shows the estimated development of the minor planet's magnitude.


The all-sky chart below shows the path of the minor planet over the same period as the light curve. The current position is marked yellow.





The following chart shows the path of the minor planet in the next few days. The field of view is optimized for (~10x50) binoculars and finderscopes.




Ephemerides:
Date       Time       RA (2000)    DEC (2000)    delta   radius  elong  phase   PA    magn
2026-07-26 00:00 UT   15 51 22.6   -25 29 38     2.826    3.427  118.3   15.1    99   13.2 
2026-07-26 17:55 UT   15 51 22.8   -25 30 17     2.836    3.427  117.6   15.2   100   13.2 
2026-07-27 00:00 UT   15 51 23.0   -25 30 31     2.839    3.427  117.4   15.3   100   13.2 
2026-07-28 00:00 UT   15 51 24.7   -25 31 26     2.853    3.428  116.5   15.4   100   13.2 
2026-07-29 00:00 UT   15 51 27.7   -25 32 23     2.867    3.429  115.5   15.5   100   13.2 
2026-07-30 00:00 UT   15 51 32.0   -25 33 23     2.881    3.430  114.6   15.6   100   13.2 
2026-07-31 00:00 UT   15 51 37.5   -25 34 25     2.895    3.430  113.7   15.7   100   13.3 
2026-08-01 00:00 UT   15 51 44.4   -25 35 30     2.909    3.431  112.7   15.8   100   13.3 
2026-08-02 00:00 UT   15 51 52.4   -25 36 38     2.923    3.432  111.8   15.9   100   13.3 
2026-08-03 00:00 UT   15 52 01.8   -25 37 48     2.937    3.433  110.9   16.0   100   13.3 
2026-08-04 00:00 UT   15 52 12.3   -25 38 60     2.951    3.433  110.0   16.1   100   13.3 
2026-08-05 00:00 UT   15 52 24.1   -25 40 15     2.966    3.434  109.1   16.2   100   13.3 
2026-08-06 00:00 UT   15 52 37.1   -25 41 32     2.980    3.435  108.2   16.3   100   13.3 
2026-08-07 00:00 UT   15 52 51.3   -25 42 52     2.995    3.435  107.3   16.4   100   13.4 
2026-08-08 00:00 UT   15 53 06.7   -25 44 14     3.009    3.436  106.4   16.4   101   13.4 
2026-08-09 00:00 UT   15 53 23.3   -25 45 39     3.024    3.437  105.5   16.5   101   13.4 
2026-08-10 00:00 UT   15 53 41.1   -25 47 06     3.039    3.438  104.6   16.6   101   13.4 
2026-08-11 00:00 UT   15 54 00.1   -25 48 36     3.053    3.438  103.7   16.6   101   13.4 
2026-08-12 00:00 UT   15 54 20.2   -25 50 08     3.068    3.439  102.9   16.7   101   13.4 
2026-08-13 00:00 UT   15 54 41.5   -25 51 42     3.083    3.440  102.0   16.7   101   13.4 
2026-08-14 00:00 UT   15 55 03.9   -25 53 19     3.098    3.440  101.1   16.8   101   13.5 
2026-08-15 00:00 UT   15 55 27.5   -25 54 58     3.113    3.441  100.3   16.8   101   13.5 
2026-08-16 00:00 UT   15 55 52.2   -25 56 39     3.128    3.442   99.4   16.9   101   13.5 
2026-08-17 00:00 UT   15 56 18.0   -25 58 23     3.143    3.442   98.5   16.9   101   13.5 
2026-08-18 00:00 UT   15 56 44.9   -26 00 08     3.158    3.443   97.7   16.9   101   13.5 
2026-08-19 00:00 UT   15 57 12.8   -26 01 56     3.173    3.444   96.8   17.0   101   13.5 
2026-08-20 00:00 UT   15 57 41.9   -26 03 46     3.188    3.444   96.0   17.0   101   13.5 
2026-08-21 00:00 UT   15 58 12.0   -26 05 39     3.203    3.445   95.2   17.0   101   13.5 
2026-08-22 00:00 UT   15 58 43.1   -26 07 33     3.218    3.445   94.3   17.0   101   13.5 
2026-08-23 00:00 UT   15 59 15.3   -26 09 29     3.233    3.446   93.5   17.0   101   13.6 
2026-08-24 00:00 UT   15 59 48.5   -26 11 27     3.249    3.447   92.7   17.0   101   13.6 
2026-08-25 00:00 UT   16 00 22.7   -26 13 27     3.264    3.447   91.8   17.0   101   13.6 


    Terminology:
            
    delta:  distance between minor planet and earth in AU
    radius: distance between minor planet and sun in AU
    magn:   magnitude (brightness) estimate    
    ra:     right ascension in hours (24h = 360deg)
    dec:    declination in degrees
    elong:  elongation in degrees (angle sun-earth-minor planet)    
    phase:  phase angle in degrees (angle sun-minor planet-earth)        
    AU:     Astronomical Unit (mean distance between earth and sun: 149597870.7 km
    

Orbital elements provided by the MPC (Minor Planet Center).
Calculations by a modified version of AAPlus, a C# implementation of the AA+ project by PJ Naughter from the algorithms presented in the book "Astronomical Algorithms" by Jean Meeus.
NGC2000 dso catalog and star labels from VizieR as provided by the Strasbourg astronomical Data Center.
Tycho2 catalog from the ESO archive.